SXS5NH EDDH-LTAI

Flight info

Callsign SXS5NH
Flight time N/A
Altitude 35000
Route AMLUH2G/33 AMLUH M852 DENIX DCT ZUCKA DCT RELKO DCT ARMUT DCT LULAR DCT DEXIT DCT SASAL DCT BABIT DCT NEPOS DCT NISVA DCT OTKOK N131 RODIP UN131 KOZLU
Aircraft A320/M-SDE3FGHIRWY/LB1

Departure

Time 2026-04-23 17:39
Airport Hamburg Helmut Schmidt Airport (EDDH)

Arrival

Time N/A
Airport Antalya International Airport (LTAI)
Time Latitude Longitude Altitude Speed Heading
2026-04-23 16:54 53.63451 10.00315 49 ft 0 kts 86°
2026-04-23 17:27 53.63450 10.00313 48 ft 1 kts 86°
2026-04-23 17:27 53.63449 10.00287 46 ft 3 kts 86°
2026-04-23 17:27 53.63449 10.00253 46 ft 3 kts 105°
2026-04-23 17:28 53.63457 10.00225 45 ft 3 kts 145°
2026-04-23 17:28 53.63469 10.00215 43 ft 1 kts 175°
2026-04-23 17:31 53.63463 10.00216 43 ft 2 kts 175°
2026-04-23 17:32 53.63438 10.00219 44 ft 6 kts 175°
2026-04-23 17:32 53.63394 10.00226 48 ft 8 kts 175°
2026-04-23 17:32 53.63325 10.00234 48 ft 11 kts 176°
2026-04-23 17:32 53.63245 10.00243 48 ft 8 kts 175°
2026-04-23 17:33 53.63185 10.00251 48 ft 10 kts 175°
2026-04-23 17:33 53.63112 10.00259 48 ft 11 kts 176°
2026-04-23 17:33 53.63033 10.00226 48 ft 13 kts 213°
2026-04-23 17:33 53.62973 10.00160 48 ft 10 kts 212°
2026-04-23 17:34 53.62908 10.00090 46 ft 12 kts 212°
2026-04-23 17:34 53.62856 9.99998 48 ft 4 kts 243°
2026-04-23 17:34 53.62846 9.99965 48 ft 0 kts 243°
2026-04-23 17:36 53.62839 9.99939 47 ft 5 kts 243°
2026-04-23 17:36 53.62816 9.99864 44 ft 11 kts 243°
2026-04-23 17:36 53.62841 9.99768 45 ft 3 kts 331°
2026-04-23 17:37 53.62844 9.99766 45 ft 0 kts 332°
2026-04-23 17:38 53.62844 9.99765 45 ft 0 kts 332°
2026-04-23 17:38 53.62894 9.99722 45 ft 22 kts 333°
2026-04-23 17:38 53.63234 9.99428 47 ft 86 kts 333°
2026-04-23 17:39 53.63932 9.98821 50 ft 136 kts 332°
2026-04-23 17:39 53.64890 9.98011 218 ft 160 kts 328°
2026-04-23 17:39 53.65877 9.97195 837 ft 158 kts 330°
2026-04-23 17:39 53.66863 9.96377 1493 ft 156 kts 332°
2026-04-23 17:40 53.67836 9.95564 2095 ft 159 kts 333°
2026-04-23 17:40 53.68911 9.94826 2378 ft 176 kts 345°
2026-04-23 17:40 53.70207 9.94663 2620 ft 196 kts 357°
2026-04-23 17:40 53.71603 9.94690 3169 ft 203 kts
2026-04-23 17:41 53.72903 9.95584 3755 ft 214 kts 40°
2026-04-23 17:41 53.73987 10.00402 5081 ft 228 kts 73°
2026-04-23 17:41 53.74038 10.03114 5729 ft 237 kts 95°
2026-04-23 17:42 53.72547 10.08656 6373 ft 284 kts 117°
2026-04-23 17:42 53.71548 10.11597 6982 ft 291 kts 116°
2026-04-23 17:42 53.70536 10.14587 7684 ft 294 kts 116°
2026-04-23 17:43 53.69468 10.17514 8392 ft 300 kts 126°
2026-04-23 17:43 53.67966 10.19993 9094 ft 306 kts 143°
2026-04-23 17:43 53.66070 10.21655 9781 ft 310 kts 162°
2026-04-23 17:43 53.63973 10.22631 10449 ft 313 kts 165°
2026-04-23 17:44 53.61822 10.23601 10773 ft 330 kts 165°
2026-04-23 17:44 53.59534 10.24644 10906 ft 351 kts 165°
2026-04-23 17:44 53.54554 10.26926 11157 ft 389 kts 164°
2026-04-23 17:45 53.51938 10.28123 11445 ft 398 kts 165°
2026-04-23 17:45 53.46539 10.30589 12246 ft 404 kts 164°
2026-04-23 17:45 53.43820 10.31833 12672 ft 406 kts 164°
2026-04-23 17:46 53.38318 10.34334 13545 ft 411 kts 164°
2026-04-23 17:46 53.35538 10.35583 14000 ft 414 kts 164°
2026-04-23 17:46 53.32777 10.36821 14399 ft 416 kts 164°
2026-04-23 17:47 53.29967 10.38079 14803 ft 418 kts 164°
2026-04-23 17:47 53.27151 10.39333 15210 ft 420 kts 164°
2026-04-23 17:47 53.21496 10.41848 16049 ft 423 kts 164°
2026-04-23 17:48 53.18646 10.43116 16485 ft 426 kts 164°
2026-04-23 17:48 53.15773 10.44395 16911 ft 428 kts 164°
2026-04-23 17:48 53.12882 10.45674 17349 ft 430 kts 165°
2026-04-23 17:48 53.09954 10.46818 17804 ft 432 kts 167°
2026-04-23 17:49 53.06987 10.47799 18256 ft 435 kts 169°
2026-04-23 17:49 53.03996 10.48673 18677 ft 438 kts 170°
2026-04-23 17:49 53.00972 10.49516 19069 ft 442 kts 170°
2026-04-23 17:49 52.97929 10.50376 19482 ft 444 kts 169°
2026-04-23 17:50 52.94880 10.51266 19896 ft 446 kts 169°
2026-04-23 17:50 52.88776 10.53142 20705 ft 451 kts 168°
2026-04-23 17:50 52.85686 10.54119 21086 ft 452 kts 168°
2026-04-23 17:51 52.82582 10.55097 21450 ft 455 kts 168°
2026-04-23 17:51 52.79462 10.56068 21810 ft 457 kts 168°
2026-04-23 17:51 52.73190 10.58004 22470 ft 460 kts 168°
2026-04-23 17:52 52.70024 10.58975 22794 ft 462 kts 168°
2026-04-23 17:52 52.63659 10.60905 23403 ft 466 kts 168°
2026-04-23 17:52 52.60506 10.61860 23768 ft 466 kts 168°
2026-04-23 17:53 52.54142 10.63793 24543 ft 463 kts 168°
2026-04-23 17:53 52.50966 10.64759 24934 ft 462 kts 168°
2026-04-23 17:53 52.47806 10.65719 25327 ft 461 kts 168°
2026-04-23 17:54 52.44650 10.66677 25718 ft 460 kts 168°
2026-04-23 17:54 52.41496 10.67634 26108 ft 459 kts 168°
2026-04-23 17:54 52.35217 10.69525 26941 ft 457 kts 168°
2026-04-23 17:55 52.29009 10.71390 27767 ft 455 kts 168°
2026-04-23 17:55 52.25903 10.72328 28194 ft 453 kts 168°
2026-04-23 17:55 52.22794 10.73267 28631 ft 452 kts 168°
2026-04-23 17:56 52.19698 10.74195 29055 ft 451 kts 167°
2026-04-23 17:56 52.13529 10.76040 29867 ft 449 kts 167°
2026-04-23 17:56 52.10456 10.76956 30151 ft 448 kts 167°
2026-04-23 17:57 52.07387 10.77866 30411 ft 447 kts 167°
2026-04-23 17:57 52.04328 10.78775 30656 ft 447 kts 167°
2026-04-23 17:57 51.98213 10.80587 31130 ft 447 kts 167°
2026-04-23 17:58 51.95186 10.81485 31227 ft 447 kts 167°
2026-04-23 17:58 51.89074 10.83297 31248 ft 446 kts 167°
2026-04-23 17:59 51.82963 10.85094 31241 ft 446 kts 167°
2026-04-23 17:59 51.77841 10.86599 31247 ft 447 kts 167°
2026-04-23 18:00 51.71743 10.88383 31577 ft 446 kts 167°
2026-04-23 18:00 51.68726 10.89484 31874 ft 444 kts 160°
2026-04-23 18:00 51.65859 10.91274 32183 ft 440 kts 150°
2026-04-23 18:00 51.63204 10.93685 32494 ft 437 kts 146°
2026-04-23 18:01 51.60599 10.96225 32790 ft 437 kts 146°
2026-04-23 18:01 51.58032 10.98716 33111 ft 437 kts 146°
2026-04-23 18:01 51.55432 11.01231 33425 ft 437 kts 146°
2026-04-23 18:01 51.52824 11.03748 33745 ft 436 kts 146°
2026-04-23 18:02 51.50218 11.06256 34057 ft 436 kts 146°
2026-04-23 18:02 51.47621 11.08749 34357 ft 435 kts 146°
2026-04-23 18:02 51.45027 11.11235 34652 ft 433 kts 146°
2026-04-23 18:02 51.42444 11.13709 34941 ft 432 kts 146°
2026-04-23 18:03 51.39868 11.16175 35187 ft 432 kts 146°
2026-04-23 18:03 51.34655 11.21181 35243 ft 442 kts 146°
2026-04-23 18:04 51.29331 11.26273 35242 ft 453 kts 146°
2026-04-23 18:04 51.23881 11.31460 35242 ft 457 kts 146°
2026-04-23 18:05 51.18422 11.36637 35248 ft 457 kts 146°
2026-04-23 18:05 51.12945 11.41806 35245 ft 457 kts 146°
2026-04-23 18:06 51.07469 11.46959 35248 ft 458 kts 146°
2026-04-23 18:06 51.01634 11.51191 35257 ft 462 kts 154°
2026-04-23 18:07 50.95703 11.55012 35254 ft 462 kts 154°
2026-04-23 18:07 50.89744 11.58846 35260 ft 462 kts 154°
2026-04-23 18:08 50.83781 11.62666 35264 ft 462 kts 154°
2026-04-23 18:08 50.77818 11.66483 35260 ft 462 kts 154°
2026-04-23 18:09 50.71822 11.70313 35223 ft 466 kts 154°
2026-04-23 18:09 50.65798 11.74158 35224 ft 468 kts 154°
2026-04-23 18:10 50.59735 11.78004 35228 ft 470 kts 154°
2026-04-23 18:10 50.53696 11.81813 35229 ft 471 kts 154°
2026-04-23 18:11 50.47607 11.85652 35236 ft 471 kts 154°
2026-04-23 18:11 50.41508 11.89489 35237 ft 471 kts 154°
2026-04-23 18:12 50.35404 11.93324 35237 ft 471 kts 154°
2026-04-23 18:12 50.29315 11.97137 35240 ft 471 kts 154°
2026-04-23 18:13 50.23217 12.00934 35246 ft 471 kts 154°
2026-04-23 18:13 50.17165 12.04691 35251 ft 471 kts 154°
2026-04-23 18:14 50.11068 12.08477 35254 ft 470 kts 154°
2026-04-23 18:14 50.04974 12.12252 35257 ft 471 kts 154°
2026-04-23 18:15 49.98916 12.15987 35252 ft 471 kts 154°
2026-04-23 18:15 49.92811 12.19742 35242 ft 470 kts 153°
2026-04-23 18:16 49.86720 12.23486 35235 ft 470 kts 153°
2026-04-23 18:16 49.80629 12.27214 35234 ft 470 kts 153°
2026-04-23 18:17 49.71705 12.33258 35228 ft 462 kts 142°
2026-04-23 18:17 49.66645 12.39231 35234 ft 457 kts 136°
2026-04-23 18:18 49.61670 12.45351 35242 ft 458 kts 136°
2026-04-23 18:18 49.56665 12.51455 35239 ft 458 kts 136°
2026-04-23 18:19 49.51667 12.57553 35240 ft 458 kts 136°
2026-04-23 18:19 49.46679 12.63649 35240 ft 458 kts 136°
2026-04-23 18:20 49.41678 12.69725 35238 ft 459 kts 136°
2026-04-23 18:20 49.36717 12.75803 35235 ft 456 kts 131°
2026-04-23 18:21 49.32315 12.82727 35239 ft 452 kts 128°
2026-04-23 18:21 49.27960 12.89705 35244 ft 452 kts 128°
2026-04-23 18:22 49.23614 12.96628 35243 ft 453 kts 128°
2026-04-23 18:22 49.19250 13.03569 35241 ft 453 kts 128°
2026-04-23 18:23 49.12683 13.13973 35244 ft 453 kts 128°
2026-04-23 18:24 49.06134 13.24314 35232 ft 453 kts 128°
2026-04-23 18:25 48.99549 13.34680 35238 ft 453 kts 128°
2026-04-23 18:25 48.95155 13.41568 35226 ft 453 kts 128°
2026-04-23 18:26 48.90749 13.48441 35241 ft 453 kts 128°
2026-04-23 18:26 48.86709 13.55605 35237 ft 446 kts 121°
2026-04-23 18:27 48.82975 13.63151 35233 ft 446 kts 120°
2026-04-23 18:27 48.79241 13.70695 35231 ft 446 kts 121°
2026-04-23 18:28 48.75517 13.78170 35232 ft 446 kts 121°
2026-04-23 18:28 48.71769 13.85682 35224 ft 446 kts 121°
2026-04-23 18:29 48.68018 13.93196 35225 ft 447 kts 121°
2026-04-23 18:29 48.64277 14.00655 35219 ft 447 kts 121°
2026-04-23 18:30 48.60513 14.08132 35222 ft 447 kts 121°
2026-04-23 18:30 48.56737 14.15621 35220 ft 447 kts 121°
2026-04-23 18:31 48.52957 14.23093 35215 ft 447 kts 121°
2026-04-23 18:31 48.49192 14.30508 35217 ft 447 kts 121°
2026-04-23 18:32 48.45405 14.37959 35214 ft 447 kts 121°
2026-04-23 18:32 48.41608 14.45396 35213 ft 448 kts 121°
2026-04-23 18:33 48.37806 14.52822 35212 ft 448 kts 121°
2026-04-23 18:33 48.33998 14.60237 35211 ft 447 kts 121°
2026-04-23 18:34 48.30206 14.67609 35211 ft 447 kts 121°
2026-04-23 18:34 48.26395 14.75006 35211 ft 447 kts 121°
2026-04-23 18:35 48.22603 14.82352 35206 ft 447 kts 121°
2026-04-23 18:35 48.18783 14.89718 35207 ft 447 kts 121°
2026-04-23 18:36 48.14956 14.97079 35204 ft 446 kts 121°
2026-04-23 18:36 48.11157 15.04366 35195 ft 446 kts 121°
2026-04-23 18:37 48.07328 15.11684 35193 ft 446 kts 122°
2026-04-23 18:37 48.03502 15.18986 35195 ft 446 kts 121°
2026-04-23 18:38 47.99674 15.26285 35194 ft 446 kts 121°
2026-04-23 18:38 47.95832 15.33579 35189 ft 446 kts 122°
2026-04-23 18:39 47.92001 15.40820 35188 ft 447 kts 122°
2026-04-23 18:39 47.88147 15.48089 35182 ft 447 kts 122°
2026-04-23 18:40 47.84938 15.54140 35177 ft 447 kts 122°
2026-04-23 18:40 47.80443 15.62583 35169 ft 447 kts 122°
2026-04-23 18:41 47.77202 15.68642 35165 ft 447 kts 122°
2026-04-23 18:41 47.73359 15.75818 35095 ft 447 kts 121°
2026-04-23 18:41 47.71423 15.79432 34895 ft 446 kts 122°
2026-04-23 18:42 47.69490 15.83037 34728 ft 445 kts 122°
2026-04-23 18:42 47.67557 15.86631 34559 ft 445 kts 122°
2026-04-23 18:42 47.65624 15.90222 34427 ft 447 kts 122°
2026-04-23 18:42 47.63677 15.93837 34310 ft 449 kts 122°
2026-04-23 18:43 47.61724 15.97456 34126 ft 449 kts 122°
2026-04-23 18:43 47.57809 16.04697 34117 ft 449 kts 122°
2026-04-23 18:44 47.53911 16.11861 34234 ft 449 kts 122°
2026-04-23 18:44 47.51948 16.15462 34379 ft 449 kts 122°
2026-04-23 18:44 47.49983 16.19072 34523 ft 450 kts 122°
2026-04-23 18:44 47.48020 16.22679 34670 ft 450 kts 122°
2026-04-23 18:45 47.46051 16.26297 34816 ft 451 kts 122°
2026-04-23 18:45 47.44085 16.29912 34972 ft 451 kts 122°
2026-04-23 18:45 47.42111 16.33531 35092 ft 452 kts 122°
2026-04-23 18:46 47.38144 16.40764 35101 ft 453 kts 122°
2026-04-23 18:46 47.34183 16.47947 35101 ft 453 kts 123°
2026-04-23 18:47 47.30196 16.55178 35102 ft 454 kts 123°
2026-04-23 18:47 47.26206 16.62404 35096 ft 454 kts 123°
2026-04-23 18:48 47.22224 16.69584 35102 ft 455 kts 123°
2026-04-23 18:48 47.18210 16.76815 35108 ft 456 kts 123°
2026-04-23 18:49 47.14175 16.84051 35104 ft 456 kts 123°
2026-04-23 18:49 47.10165 16.91236 35108 ft 457 kts 123°
2026-04-23 18:50 47.06786 16.97285 35105 ft 457 kts 123°
2026-04-23 18:50 47.02075 17.05683 35102 ft 458 kts 124°
2026-04-23 18:51 46.98015 17.12882 35098 ft 458 kts 124°
2026-04-23 18:51 46.93947 17.20095 35105 ft 459 kts 124°
2026-04-23 18:52 46.89892 17.27258 35102 ft 459 kts 124°
2026-04-23 18:52 46.85801 17.34477 35098 ft 460 kts 124°
2026-04-23 18:53 46.81709 17.41675 35094 ft 461 kts 124°
2026-04-23 18:53 46.77623 17.48841 35089 ft 461 kts 124°
2026-04-23 18:54 46.73498 17.56042 35087 ft 462 kts 124°
2026-04-23 18:54 46.69364 17.63248 35084 ft 463 kts 125°
2026-04-23 18:55 46.65232 17.70446 35080 ft 463 kts 125°
2026-04-23 18:55 46.61107 17.77609 35079 ft 464 kts 125°
2026-04-23 18:56 46.57645 17.83605 35078 ft 465 kts 125°
2026-04-23 18:56 46.52767 17.92028 35075 ft 466 kts 125°
2026-04-23 18:57 46.48601 17.99179 35075 ft 466 kts 126°
2026-04-23 18:57 46.44404 18.06379 35069 ft 467 kts 126°
2026-04-23 18:58 46.40201 18.13591 35065 ft 468 kts 126°
2026-04-23 18:58 46.35980 18.20812 35064 ft 469 kts 126°
2026-04-23 18:59 46.31776 18.27968 35062 ft 470 kts 126°
2026-04-23 18:59 46.27530 18.35179 35063 ft 470 kts 126°
2026-04-23 19:00 46.23159 18.42232 35059 ft 473 kts 129°
2026-04-23 19:00 46.18523 18.49046 35059 ft 475 kts 131°
2026-04-23 19:01 46.13851 18.55712 35060 ft 476 kts 131°
2026-04-23 19:01 46.09167 18.62484 35055 ft 476 kts 130°
2026-04-23 19:02 46.05297 18.68142 35047 ft 477 kts 130°
2026-04-23 19:02 45.99874 18.76062 35048 ft 478 kts 131°
2026-04-23 19:03 45.95181 18.82860 35058 ft 478 kts 131°
2026-04-23 19:03 45.90477 18.89643 35053 ft 479 kts 131°
2026-04-23 19:04 45.85766 18.96424 35055 ft 480 kts 131°
2026-04-23 19:04 45.81054 19.03202 35054 ft 480 kts 131°
2026-04-23 19:05 45.76330 19.09976 35052 ft 480 kts 131°
2026-04-23 19:05 45.71600 19.16743 35054 ft 481 kts 131°
2026-04-23 19:06 45.66864 19.23500 35057 ft 481 kts 131°
2026-04-23 19:06 45.62112 19.30261 35061 ft 481 kts 131°
2026-04-23 19:07 45.57391 19.36968 35059 ft 482 kts 131°
2026-04-23 19:07 45.52624 19.43721 35064 ft 482 kts 131°
2026-04-23 19:08 45.47859 19.50461 35062 ft 482 kts 131°
2026-04-23 19:08 45.43082 19.57206 35063 ft 483 kts 131°
2026-04-23 19:09 45.38296 19.63929 35064 ft 483 kts 132°
2026-04-23 19:09 45.33533 19.70588 35060 ft 483 kts 132°
2026-04-23 19:10 45.28741 19.77288 35068 ft 483 kts 131°
2026-04-23 19:10 45.23939 19.84000 35067 ft 484 kts 132°
2026-04-23 19:11 45.19124 19.90701 35065 ft 484 kts 132°
2026-04-23 19:11 45.14330 19.97354 35073 ft 484 kts 132°
2026-04-23 19:12 45.10323 20.02902 35068 ft 484 kts 132°
2026-04-23 19:12 45.04681 20.10685 35077 ft 485 kts 132°
2026-04-23 19:13 44.99845 20.17345 35085 ft 485 kts 132°
2026-04-23 19:13 44.95033 20.23963 35076 ft 485 kts 132°
2026-04-23 19:14 44.90181 20.30624 35081 ft 485 kts 132°
2026-04-23 19:14 44.85323 20.37270 35080 ft 485 kts 132°
2026-04-23 19:15 44.80487 20.43855 35080 ft 486 kts 132°
2026-04-23 19:15 44.75617 20.50474 35077 ft 486 kts 132°
2026-04-23 19:16 44.70754 20.57072 35074 ft 486 kts 132°
2026-04-23 19:16 44.65884 20.63662 35071 ft 486 kts 132°
2026-04-23 19:17 44.58578 20.73541 35067 ft 486 kts 132°
2026-04-23 19:17 44.53725 20.80061 35066 ft 486 kts 132°
2026-04-23 19:18 44.48835 20.86617 35066 ft 485 kts 132°
2026-04-23 19:18 44.43955 20.93161 35064 ft 485 kts 132°
2026-04-23 19:19 44.36625 21.02957 35066 ft 485 kts 132°
2026-04-23 19:20 44.29308 21.12682 35066 ft 485 kts 133°
2026-04-23 19:20 44.24409 21.19169 35060 ft 485 kts 132°
2026-04-23 19:21 44.17882 21.27813 35061 ft 485 kts 133°
2026-04-23 19:22 44.12979 21.34285 35064 ft 485 kts 133°
2026-04-23 19:22 44.05602 21.43973 35066 ft 485 kts 133°
2026-04-23 19:23 44.00696 21.50407 35066 ft 485 kts 133°